User: anonymous   Login
Location: Alpha Ridge Park
(39.3209°N, 76.9128°W)
Time: 16:37:17
(UTC-04:00)
Language:

S-56A Canister/Altair - Orbit

View from above orbital plane
View from above orbital plane
View from above satellite
View from above satellite

Ground track
Ground track

The orbit data is extracted from the following two-line orbital elements,

1    82U 61004B   19146.42770799 -.00000009  00000-0  38607-4 0  9995
2    82  38.8544 195.1527 1174627  10.8042 351.5711 12.26034238760183
Epoch (UTC): 26 May 2019 10:15:53
Eccentricity: 0.1174627
inclination: 38.8544°
perigee height: 633 km
apogee height: 2499 km
right ascension of ascending node: 195.1527°
argument of perigee: 10.8042°
revolutions per day: 12.26034238
mean anomaly at epoch: 351.5711°
orbit number at epoch: 76018

The dashed part of the orbit path shows where the satellite is in the earth's shadow,  

DLR